Home   Weather   Salalah   Past weeks

Flag for Oman Past Weather in Salalah, Oman — Yesterday and Last 2 Weeks

Now
82 °F

Broken clouds.


Feels Like: 89 °F
Forecast: 74 / 85 °F
Wind: 14 mph from South

Location: Salalah Airport

Current Time: Aug 30, 2016 at 3:11:20 PM

Latest Report: Aug 30, 2016 at 1:50 PM


Visibility: 6 mi

Pressure: 29.71 "Hg

Humidity: 79%

Dew Point: 75 °F

Location of SalalahLocation

Past Weather in Salalah — Graph

°F

Salalah Temperature Yesterday

Maximum temperature yesterday: 84 °F (at 2:50 PM)
Minimum temperature yesterday: 77 °F (at 3:50 AM)
Average temperature yesterday: 80 °F

High & Low Weather Summary for the Past Weeks

 TemperatureHumidityPressure
High84 °F (Aug 29, 2:50 PM)100% (Aug 16, 3:50 AM)29.83 "Hg (Aug 16, 3:50 AM)
Low75 °F (Aug 16, 3:50 AM)70% (Aug 27, 1:50 PM)29.53 "Hg (Aug 18, 2:50 PM)
Average78 °F90%29.70 "Hg
* Reported Aug 15 1:50 PM — Aug 30 1:50 PM, Salalah, Weather by CustomWeather, © 2016

Note: Actual official high and low records may vary slightly from our data, if they occured in-between our weather recording intervals... More about our weather records

Advertising

Salalah Weather History for the Previous 24 Hours

Scroll right to see more
 ConditionsComfort  
Time TempWeatherWind HumidityBarometerVisibility
1:50 PM
Tue, Aug 30
82 °FBroken clouds.14 mph79%29.71 "Hg6 mi
12:50 PM82 °FBroken clouds.13 mph79%29.74 "Hg6 mi
11:50 AM82 °FBroken clouds.16 mph74%29.74 "HgN/A
10:50 AM82 °FScattered clouds.12 mph74%29.77 "HgN/A
9:50 AM82 °FScattered clouds.9 mph79%29.77 "HgN/A
8:50 AM79 °FPartly sunny.7 mph89%29.77 "Hg6 mi
7:50 AM79 °FMore clouds than sun.7 mph89%29.77 "Hg6 mi
6:50 AM77 °FPartly sunny.6 mph89%29.74 "Hg6 mi
5:50 AM77 °FPassing clouds.6 mph89%29.74 "HgN/A
4:50 AM77 °FPassing clouds.7 mph94%29.74 "HgN/A
3:50 AM79 °FPassing clouds.6 mph89%29.71 "HgN/A
2:50 AM79 °FPassing clouds.6 mph84%29.71 "HgN/A
1:50 AM79 °FPassing clouds.5 mph89%29.71 "HgN/A
12:50 AM79 °FPassing clouds.7 mph89%29.74 "HgN/A
11:50 PM
Mon, Aug 29
79 °FPassing clouds.8 mph89%29.74 "HgN/A
10:50 PM79 °FPassing clouds.8 mph89%29.77 "HgN/A
9:50 PM79 °FPassing clouds.8 mph89%29.77 "HgN/A
8:50 PM79 °FPassing clouds.7 mph89%29.74 "Hg6 mi
7:50 PM79 °FPassing clouds.7 mph89%29.74 "HgN/A
6:50 PM79 °FPassing clouds.10 mph89%29.71 "Hg6 mi
5:50 PM81 °FPartly sunny.12 mph84%29.71 "Hg6 mi
4:50 PM81 °FScattered clouds.13 mph84%29.68 "HgN/A
3:50 PM82 °FScattered clouds.13 mph79%29.68 "HgN/A
Weather by CustomWeather, © 2016

See weather overviewHow to use our weather pages